When you browse on this site, cookies collect data to enhance your experience and personalize the content and advertising you see.
Visit our Privacy Policy to learn more. By continuing to use the site, you agree to this use of cookies and data.
  • Em Portugal
  • Lista de países
  • Para 7 dias
  • Temperatura da água
  • Mapas de satélite
  • Mapa do tempo
  • Widgets de tempo
  • user-avatar
    Iniciar Sessão

    Previsão horária em Gumnische

    Hoje, 26 Abril, Sexta-feira

    Tempo Temperatura Precipitação Vento Pressão Humidade
    00:00 +13°C° 0 mm 2 m/s 752 mmHg 57%
    01:00 +12°C° 0 mm 2 m/s 752 mmHg 58%
    02:00 +11°C° 0 mm 1 m/s 752 mmHg 60%
    03:00 +11°C° 0 mm 1 m/s 752 mmHg 62%
    04:00 +10°C° 0 mm 2 m/s 751 mmHg 63%
    05:00 +9°C° 0 mm 2 m/s 751 mmHg 65%
    06:00 +12°C° 0 mm 2 m/s 751 mmHg 62%
    07:00 +14°C° 0 mm 2 m/s 751 mmHg 58%
    08:00 +16°C° 0 mm 3 m/s 751 mmHg 55%
    09:00 +18°C° 0 mm 3 m/s 751 mmHg 50%
    10:00 +19°C° 0 mm 4 m/s 751 mmHg 45%
    11:00 +21°C° 0 mm 4 m/s 750 mmHg 40%
    12:00 +21°C° 0 mm 4 m/s 750 mmHg 38%
    13:00 +22°C° 0 mm 4 m/s 750 mmHg 36%
    14:00 +22°C° 0 mm 4 m/s 750 mmHg 35%
    15:00 +22°C° 0 mm 4 m/s 749 mmHg 35%
    16:00 +22°C° 0 mm 4 m/s 749 mmHg 36%
    17:00 +21°C° 0 mm 4 m/s 749 mmHg 37%
    18:00 +19°C° 0 mm 3 m/s 748 mmHg 41%
    19:00 +17°C° 0 mm 3 m/s 748 mmHg 46%
    20:00 +14°C° 0 mm 3 m/s 748 mmHg 51%
    21:00 +14°C° 0 mm 3 m/s 748 mmHg 51%
    22:00 +13°C° 0 mm 3 m/s 748 mmHg 52%
    23:00 +13°C° 0 mm 3 m/s 748 mmHg 52%

    Amanhã, 27 Abril, Sábado

    Tempo Temperatura Precipitação Vento Pressão Humidade
    00:00 +12°C° 0 mm 3 m/s 747 mmHg 57%
    01:00 +12°C° 0 mm 3 m/s 747 mmHg 62%
    02:00 +11°C° 0 mm 3 m/s 747 mmHg 67%
    03:00 +11°C° 0 mm 3 m/s 747 mmHg 70%
    04:00 +11°C° 0 mm 3 m/s 746 mmHg 73%
    05:00 +11°C° 0 mm 3 m/s 746 mmHg 77%
    06:00 +12°C° 0.3 mm 3 m/s 746 mmHg 75%
    07:00 +13°C° 0.3 mm 3 m/s 745 mmHg 74%
    08:00 +14°C° 0.3 mm 4 m/s 745 mmHg 72%
    09:00 +15°C° 0 mm 4 m/s 745 mmHg 69%
    10:00 +18°C° 0 mm 4 m/s 745 mmHg 66%
    11:00 +19°C° 0 mm 4 m/s 744 mmHg 63%
    12:00 +20°C° 0 mm 5 m/s 744 mmHg 60%
    13:00 +21°C° 0 mm 5 m/s 744 mmHg 57%
    14:00 +21°C° 0 mm 5 m/s 743 mmHg 55%
    15:00 +22°C° 0 mm 4 m/s 743 mmHg 54%
    16:00 +22°C° 0 mm 4 m/s 743 mmHg 54%
    17:00 +22°C° 0 mm 4 m/s 742 mmHg 54%
    18:00 +20°C° 0.6 mm 3 m/s 742 mmHg 64%
    19:00 +18°C° 0.6 mm 3 m/s 742 mmHg 73%
    20:00 +16°C° 0.6 mm 3 m/s 742 mmHg 82%
    21:00 +16°C° 0.2 mm 3 m/s 742 mmHg 86%
    22:00 +14°C° 0.2 mm 3 m/s 742 mmHg 90%
    23:00 +13°C° 0.2 mm 3 m/s 742 mmHg 93%

    Depois de amanhã, 28 Abril, Domingo

    Tempo Temperatura Precipitação Vento Pressão Humidade
    00:00 +14°C° 0.1 mm 2 m/s 742 mmHg 94%
    01:00 +13°C° 0.1 mm 2 m/s 741 mmHg 94%
    02:00 +13°C° 0.1 mm 1 m/s 741 mmHg 95%
    03:00 +13°C° 0 mm 1 m/s 741 mmHg 95%
    04:00 +12°C° 0 mm 2 m/s 741 mmHg 96%
    05:00 +12°C° 0 mm 2 m/s 741 mmHg 96%
    06:00 +14°C° 0 mm 2 m/s 742 mmHg 90%
    07:00 +15°C° 0 mm 2 m/s 742 mmHg 84%
    08:00 +17°C° 0 mm 3 m/s 742 mmHg 77%
    09:00 +19°C° 0 mm 3 m/s 742 mmHg 70%
    10:00 +20°C° 0 mm 4 m/s 743 mmHg 63%
    11:00 +22°C° 0 mm 4 m/s 743 mmHg 56%
    12:00 +22°C° 0.3 mm 5 m/s 743 mmHg 55%
    13:00 +22°C° 0.3 mm 5 m/s 743 mmHg 55%
    14:00 +22°C° 0.3 mm 6 m/s 743 mmHg 54%
    15:00 +21°C° 0.2 mm 6 m/s 744 mmHg 58%
    16:00 +20°C° 0.2 mm 6 m/s 744 mmHg 61%
    17:00 +18°C° 0.2 mm 7 m/s 744 mmHg 65%
    18:00 +16°C° 0 mm 6 m/s 745 mmHg 67%
    19:00 +15°C° 0 mm 6 m/s 745 mmHg 69%
    20:00 +13°C° 0 mm 6 m/s 746 mmHg 71%
    21:00 +11°C° 0 mm 6 m/s 746 mmHg 69%
    22:00 +10°C° 0 mm 6 m/s 747 mmHg 68%
    23:00 +9°C° 0 mm 5 m/s 747 mmHg 66%

    29 Abril, Segunda-feira

    Tempo Temperatura Precipitação Vento Pressão Humidade
    00:00 +8°C° 0 mm 6 m/s 748 mmHg 63%
    01:00 +8°C° 0 mm 6 m/s 748 mmHg 61%
    02:00 +7°C° 0 mm 6 m/s 748 mmHg 59%
    03:00 +5°C° 0 mm 6 m/s 748 mmHg 61%
    04:00 +4°C° 0 mm 6 m/s 749 mmHg 63%
    05:00 +4°C° 0 mm 6 m/s 749 mmHg 65%
    06:00 +5°C° 0 mm 6 m/s 749 mmHg 63%
    07:00 +5°C° 0 mm 6 m/s 749 mmHg 61%
    08:00 +6°C° 0 mm 7 m/s 749 mmHg 59%
    09:00 +9°C° 0 mm 7 m/s 749 mmHg 54%
    10:00 +10°C° 0 mm 7 m/s 750 mmHg 50%
    11:00 +11°C° 0 mm 7 m/s 750 mmHg 45%
    12:00 +12°C° 0 mm 7 m/s 749 mmHg 44%
    13:00 +13°C° 0 mm 6 m/s 749 mmHg 43%
    14:00 +14°C° 0 mm 6 m/s 749 mmHg 42%
    15:00 +13°C° 0 mm 6 m/s 749 mmHg 43%
    16:00 +13°C° 0 mm 6 m/s 749 mmHg 44%
    17:00 +13°C° 0 mm 5 m/s 748 mmHg 46%
    18:00 +10°C° 0 mm 5 m/s 749 mmHg 50%
    19:00 +10°C° 0 mm 4 m/s 749 mmHg 55%
    20:00 +7°C° 0 mm 4 m/s 749 mmHg 60%
    21:00 +7°C° 0 mm 4 m/s 749 mmHg 60%
    22:00 +6°C° 0 mm 4 m/s 749 mmHg 61%
    23:00 +5°C° 0 mm 4 m/s 749 mmHg 62%

    30 Abril, Terça-feira

    Tempo Temperatura Precipitação Vento Pressão Humidade
    00:00 +4°C° 0 mm 4 m/s 749 mmHg 63%
    01:00 +4°C° 0 mm 4 m/s 748 mmHg 64%
    02:00 +3°C° 0 mm 4 m/s 748 mmHg 64%
    03:00 +3°C° 0 mm 4 m/s 748 mmHg 66%
    04:00 +1°C° 0 mm 4 m/s 748 mmHg 67%
    05:00 +1°C° 0 mm 4 m/s 748 mmHg 68%
    06:00 +4°C° 0 mm 4 m/s 747 mmHg 63%
    07:00 +5°C° 0 mm 5 m/s 747 mmHg 58%
    08:00 +7°C° 0 mm 5 m/s 747 mmHg 53%
    09:00 +8°C° 0 mm 5 m/s 747 mmHg 49%
    10:00 +10°C° 0 mm 6 m/s 747 mmHg 46%
    11:00 +11°C° 0 mm 6 m/s 746 mmHg 43%
    12:00 +11°C° 0 mm 6 m/s 746 mmHg 41%
    13:00 +13°C° 0 mm 6 m/s 746 mmHg 40%
    14:00 +13°C° 0 mm 6 m/s 745 mmHg 39%
    15:00 +13°C° 0 mm 5 m/s 745 mmHg 40%
    16:00 +13°C° 0 mm 5 m/s 745 mmHg 41%
    17:00 +13°C° 0 mm 5 m/s 744 mmHg 42%
    18:00 +10°C° 0 mm 5 m/s 745 mmHg 47%
    19:00 +10°C° 0 mm 4 m/s 745 mmHg 52%
    20:00 +7°C° 0 mm 4 m/s 745 mmHg 57%
    21:00 +7°C° 0 mm 4 m/s 745 mmHg 57%
    22:00 +7°C° 0 mm 3 m/s 745 mmHg 56%
    23:00 +7°C° 0 mm 3 m/s 745 mmHg 56%

    1 Maio, Quarta-feira

    Tempo Temperatura Precipitação Vento Pressão Humidade
    00:00 +5°C° 0 mm 3 m/s 745 mmHg 59%
    01:00 +4°C° 0 mm 3 m/s 745 mmHg 63%
    02:00 +3°C° 0 mm 3 m/s 745 mmHg 66%
    03:00 +3°C° 0 mm 3 m/s 745 mmHg 68%
    04:00 +3°C° 0 mm 3 m/s 745 mmHg 70%
    05:00 +2°C° 0 mm 3 m/s 745 mmHg 71%
    06:00 +4°C° 0 mm 3 m/s 745 mmHg 66%
    07:00 +7°C° 0 mm 3 m/s 745 mmHg 61%
    08:00 +9°C° 0 mm 3 m/s 745 mmHg 56%
    09:00 +10°C° 0 mm 3 m/s 745 mmHg 52%
    10:00 +11°C° 0 mm 4 m/s 745 mmHg 48%
    11:00 +12°C° 0 mm 4 m/s 745 mmHg 45%
    12:00 +12°C° 0 mm 4 m/s 744 mmHg 44%
    13:00 +12°C° 0 mm 4 m/s 744 mmHg 44%
    14:00 +12°C° 0 mm 3 m/s 744 mmHg 44%
    15:00 +12°C° 0 mm 3 m/s 743 mmHg 45%
    16:00 +12°C° 0 mm 3 m/s 743 mmHg 45%
    17:00 +12°C° 0 mm 3 m/s 743 mmHg 46%
    18:00 +11°C° 0 mm 3 m/s 743 mmHg 50%
    19:00 +9°C° 0 mm 2 m/s 743 mmHg 54%
    20:00 +8°C° 0 mm 2 m/s 743 mmHg 58%
    21:00 +8°C° 0 mm 2 m/s 743 mmHg 58%
    22:00 +8°C° 0 mm 1 m/s 743 mmHg 59%
    23:00 +8°C° 0 mm 1 m/s 742 mmHg 59%
    Mostrar mais